FW7690 Weather Reports


time (UTC)temp
C
wind
direction
speed
KPH
gust
KPH
rain 1hr
cm
rain 24hr
cm
rain mn
cm
humidity
%
barometer
mb
20260906113047 33 223 0.0 4.8 0.00 0.00 0.00 53 1019.6
20260906112530 32 81 0.0 4.8 0.00 0.00 0.00 56 1019.7
20260906112032 32 0 0.0 4.8 0.00 0.00 0.00 56 1019.8
20260906111555 32 7 0.0 4.8 0.00 0.00 0.00 58 1019.7
20260906111031 32 0 0.0 4.8 0.00 0.00 0.00 56 1019.7
20260906110531 32 82 1.6 4.8 0.00 0.00 0.00 56 1019.9
20260906110057 31 0 0.0 3.2 0.00 0.00 0.00 57 1019.8
20260906105531 31 156 1.6 6.4 0.00 0.00 0.00 59 1019.9
20260906105030 31 255 0.0 6.4 0.00 0.00 0.00 60 1019.8
20260906104559 31 121 1.6 4.8 0.00 0.00 0.00 58 1020.0
20260906104030 31 134 1.6 4.8 0.00 0.00 0.00 57 1019.9
20260906103531 31 221 1.6 4.8 0.00 0.00 0.00 59 1020.0
20260906103050 31 0 0.0 3.2 0.00 0.00 0.00 60 1019.9
20260906102531 31 106 0.0 4.8 0.00 0.00 0.00 60 1020.1
20260906102031 30 95 0.0 4.8 0.00 0.00 0.00 60 1020.1
20260906101549 30 78 1.6 4.8 0.00 0.00 0.00 61 1020.2
20260906101030 30 136 1.6 4.8 0.00 0.00 0.00 61 1020.2
20260906100534 30 105 1.6 4.8 0.00 0.00 0.00 63 1020.4
20260906100056 30 139 1.6 6.4 0.00 0.00 0.00 62 1020.4
20260906095533 30 299 1.6 6.4 0.00 0.00 0.00 64 1020.4
20260906095033 30 319 0.0 4.8 0.00 0.00 0.00 59 1020.3
20260906094614 30 158 0.0 8.0 0.00 0.00 0.00 63 1020.3
20260906094040 29 128 0.0 8.0 0.00 0.00 0.00 63 1020.3
20260906093531 29 275 0.0 6.4 0.00 0.00 0.00 63 1020.4
20260906093131 29 335 0.0 4.8 0.00 0.00 0.00 65 1020.4
20260906092533 29 0 0.0 6.4 0.00 0.00 0.00 66 1020.6
20260906092031 29 302 3.2 6.4 0.00 0.00 0.00 68 1020.5
20260906091608 29 307 1.6 6.4 0.00 0.00 0.00 68 1020.4
20260906091031 28 132 1.6 4.8 0.00 0.00 0.00 67 1020.5
20260906090535 28 219 1.6 3.2 0.00 0.00 0.00 67 1020.6
20260906090059 28 0 0.0 0.0 0.00 0.00 0.00 68 1020.6
20260906085534 28 0 0.0 0.0 0.00 0.00 0.00 69 1020.3
20260906085034 28 0 0.0 1.6 0.00 0.00 0.00 69 1020.5
20260906084604 28 0 0.0 1.6 0.00 0.00 0.00 71 1020.5
20260906084031 28 0 0.0 1.6 0.00 0.00 0.00 72 1020.4
20260906083533 27 0 0.0 1.6 0.00 0.00 0.00 73 1020.3
20260906083051 27 253 0.0 4.8 0.00 0.00 0.00 73 1020.3
20260906082530 27 0 0.0 4.8 0.00 0.00 0.00 74 1020.4
20260906082036 27 70 1.6 4.8 0.00 0.00 0.00 74 1020.4
20260906081559 27 84 0.0 1.6 0.00 0.00 0.00 74 1020.4
20260906081033 27 0 0.0 1.6 0.00 0.00 0.00 74 1020.4
20260906080532 27 0 0.0 1.6 0.00 0.00 0.00 75 1020.4
20260906075531 26 0 0.0 1.6 0.00 0.00 0.00 77 1020.4
20260906075030 26 0 0.0 0.0 0.00 0.00 0.00 78 1020.3
20260906074557 26 0 0.0 1.6 0.00 0.00 0.00 79 1020.2
20260906074033 26 0 0.0 1.6 0.00 0.00 0.00 79 1020.3
20260906073536 26 0 0.0 1.6 0.00 0.00 0.00 78 1020.4
20260906073050 25 0 0.0 1.6 0.00 0.00 0.00 80 1020.3
20260906072531 25 0 0.0 1.6 0.00 0.00 0.00 81 1020.2
20260906072030 25 0 0.0 1.6 0.00 0.00 0.00 82 1020.2
20260906071600 24 0 0.0 1.6 0.00 0.00 0.00 83 1020.1
20260906071031 24 0 0.0 1.6 0.00 0.00 0.00 82 1020.1
20260906070531 25 0 0.0 1.6 0.00 0.00 0.00 81 1019.9
20260906070059 25 0 0.0 1.6 0.00 0.00 0.00 81 1020.1
20260906065535 24 0 0.0 1.6 0.00 0.00 0.00 82 1020.1
20260906065035 23 39 0.0 1.6 0.00 0.00 0.00 86 1020.0
20260906064555 23 305 0.0 1.6 0.00 0.00 0.00 85 1020.0
20260906064032 23 0 0.0 0.0 0.00 0.00 0.00 84 1020.1
20260906063533 23 0 0.0 4.8 0.00 0.00 0.00 86 1020.0
20260906063052 22 0 0.0 4.8 0.00 0.00 0.00 87 1019.8
20260906062535 22 307 0.0 3.2 0.00 0.00 0.00 87 1019.8
20260906062033 22 0 0.0 1.6 0.00 0.00 0.00 87 1019.9
20260906061601 22 0 0.0 1.6 0.00 0.00 0.00 88 1019.8
20260906061032 22 0 0.0 0.0 0.00 0.00 0.00 88 1019.7
20260906060533 22 0 0.0 0.0 0.00 0.00 0.00 89 1019.9
20260906060100 21 0 0.0 0.0 0.00 0.00 0.00 89 1019.7
20260906055533 21 0 0.0 0.0 0.00 0.00 0.00 92 1019.6
20260906055033 21 0 0.0 0.0 0.00 0.00 0.00 93 1019.4
20260906054607 20 0 0.0 0.0 0.00 0.00 0.00 93 1019.6
20260906054033 20 0 0.0 0.0 0.00 0.00 0.00 93 1019.6
20260906053533 20 0 0.0 0.0 0.00 0.00 0.00 93 1019.4
20260906053051 20 0 0.0 0.0 0.00 0.00 0.00 93 1019.4
20260906052533 20 0 0.0 0.0 0.00 0.00 0.00 93 1019.3
20260906052034 20 0 0.0 0.0 0.00 0.00 0.00 93 1019.4
20260906051556 20 0 0.0 0.0 0.00 0.00 0.00 94 1019.3
20260906051033 20 0 0.0 0.0 0.00 0.00 0.00 94 1019.3
20260906050533 20 0 0.0 0.0 0.00 0.00 0.00 94 1019.1
20260906050105 20 0 0.0 0.0 0.00 0.00 0.00 95 1019.2
20260906045534 20 0 0.0 0.0 0.00 0.00 0.00 94 1019.2
20260906045032 19 0 0.0 0.0 0.00 0.00 0.00 94 1019.1
20260906044559 19 0 0.0 0.0 0.00 0.00 0.00 94 1019.0
20260906044035 19 0 0.0 3.2 0.00 0.00 0.00 94 1019.1
20260906043537 19 0 0.0 3.2 0.00 0.00 0.00 94 1019.0
20260906043050 20 141 0.0 1.6 0.00 0.00 0.00 93 1019.1
20260906042532 20 0 0.0 0.0 0.00 0.00 0.00 95 1018.9
20260906042033 20 0 0.0 0.0 0.00 0.00 0.00 94 1019.0
20260906041550 20 0 0.0 0.0 0.00 0.00 0.00 94 1019.0
20260906041033 20 0 0.0 0.0 0.00 0.00 0.00 94 1019.1
20260906040532 20 0 0.0 0.0 0.00 0.00 0.00 94 1018.8
20260906040105 20 0 0.0 0.0 0.00 0.00 0.00 94 1018.7
20260906035537 20 0 0.0 0.0 0.00 0.00 0.00 94 1018.6
20260906035034 20 0 0.0 0.0 0.00 0.00 0.00 94 1018.7
20260906034554 20 0 0.0 0.0 0.00 0.00 0.00 94 1018.8
20260906034029 20 0 0.0 0.0 0.00 0.00 0.00 94 1018.7
20260906033530 20 0 0.0 0.0 0.00 0.00 0.00 93 1018.9
20260906033050 20 0 0.0 0.0 0.00 0.00 0.00 93 1018.9
20260906032530 20 0 0.0 0.0 0.00 0.00 0.00 93 1018.7
20260906032033 20 0 0.0 0.0 0.00 0.00 0.00 93 1018.8
20260906031557 20 0 0.0 0.0 0.00 0.00 0.00 93 1018.9
20260906031031 20 0 0.0 0.0 0.00 0.00 0.00 93 1018.8
20260906030533 20 0 0.0 1.6 0.00 0.00 0.00 93 1018.9
20260906025532 20 0 0.0 1.6 0.00 0.00 0.00 93 1018.8
20260906025032 20 0 0.0 1.6 0.00 0.00 0.00 92 1018.9
20260906024558 20 0 0.0 1.6 0.00 0.00 0.00 92 1018.9
20260906024033 20 0 0.0 1.6 0.00 0.00 0.00 92 1018.8
20260906023531 20 141 0.0 1.6 0.00 0.00 0.00 93 1018.8
20260906023048 20 0 0.0 0.0 0.00 0.00 0.00 92 1018.9
20260906022531 20 0 0.0 0.0 0.00 0.00 0.00 92 1018.9
20260906022031 20 0 0.0 0.0 0.00 0.00 0.00 92 1018.9
20260906021559 20 0 0.0 1.6 0.00 0.00 0.00 92 1018.8
20260906021032 20 0 0.0 1.6 0.00 0.00 0.00 92 1018.7
20260906020532 20 141 0.0 1.6 0.00 0.00 0.00 92 1018.8
20260906020055 20 0 0.0 1.6 0.00 0.00 0.00 92 1018.8
20260906015531 20 0 0.0 1.6 0.00 0.00 0.00 92 1018.9
20260906015032 20 0 0.0 0.0 0.00 0.00 0.00 92 1018.9
20260906014632 20 0 0.0 0.0 0.00 0.00 0.00 92 1018.9
20260906014032 20 0 0.0 0.0 0.00 0.00 0.00 92 1018.9
20260906013531 20 0 0.0 0.0 0.00 0.00 0.00 92 1018.8
20260906013103 21 0 0.0 0.0 0.00 0.00 0.00 91 1018.9
20260906012531 21 0 0.0 0.0 0.00 0.00 0.00 91 1018.8
20260906012033 21 0 0.0 1.6 0.00 0.00 0.00 91 1018.9
20260906011604 21 0 0.0 1.6 0.00 0.00 0.00 91 1018.9
20260906011029 21 120 0.0 1.6 0.00 0.00 0.00 91 1018.9
20260906010532 21 0 0.0 0.0 0.00 0.00 0.00 91 1018.8
20260906010055 21 0 0.0 0.0 0.00 0.00 0.00 90 1018.9
20260906005531 21 0 0.0 1.6 0.00 0.00 0.00 90 1018.7
20260906005033 21 0 0.0 1.6 0.00 0.00 0.00 90 1018.7
20260906004611 21 0 0.0 1.6 0.00 0.00 0.00 90 1018.9
20260906004036 21 0 0.0 1.6 0.00 0.00 0.00 90 1018.7
20260906003530 21 0 0.0 1.6 0.00 0.00 0.00 90 1018.7
20260906003111 21 0 0.0 0.0 0.00 0.00 0.00 90 1018.7
20260906002532 21 0 0.0 1.6 0.00 0.00 0.00 90 1018.6
20260906002032 21 0 0.0 1.6 0.00 0.00 0.00 90 1018.8
20260906001555 21 122 0.0 1.6 0.00 0.00 0.00 89 1018.8
20260906001031 21 0 0.0 0.0 0.00 0.00 0.00 89 1018.9
20260906000531 21 0 0.0 0.0 0.00 0.00 0.00 89 1019.0
20260906000053 21 0 0.0 0.0 0.00 0.00 0.00 89 1018.8
20260905235530 21 0 0.0 0.0 0.00 0.00 0.00 89 1019.0
20260905235031 21 0 0.0 0.0 0.00 0.00 0.00 89 1019.1
20260905234551 21 0 0.0 0.0 0.00 0.00 0.00 89 1018.9
20260905234032 22 0 0.0 1.6 0.00 0.00 0.00 89 1019.0
20260905233535 22 0 0.0 1.6 0.00 0.00 0.00 88 1019.0
20260905233058 22 0 0.0 1.6 0.00 0.00 0.00 89 1018.9
20260905232533 22 0 0.0 0.0 0.00 0.00 0.00 88 1019.1
20260905232032 22 0 0.0 0.0 0.00 0.00 0.00 88 1019.1
20260905231555 22 0 0.0 0.0 0.00 0.00 0.00 88 1019.2
20260905231035 22 0 0.0 1.6 0.00 0.00 0.00 89 1019.2
20260905230531 22 0 0.0 1.6 0.00 0.00 0.00 90 1019.2
20260905230049 21 0 0.0 0.0 0.00 0.00 0.00 91 1018.9
20260905225534 22 0 0.0 0.0 0.00 0.00 0.00 92 1019.2
20260905225033 21 0 0.0 0.0 0.00 0.00 0.00 92 1019.1
20260905224613 21 0 0.0 0.0 0.00 0.00 0.00 91 1018.9
20260905224035 22 0 0.0 0.0 0.00 0.00 0.00 91 1019.1
20260905223532 22 0 0.0 0.0 0.00 0.00 0.00 91 1019.0
20260905223057 21 0 0.0 0.0 0.00 0.00 0.00 91 1018.9
20260905222534 21 0 0.0 0.0 0.00 0.00 0.00 90 1019.1
20260905222032 21 0 0.0 0.0 0.00 0.00 0.00 90 1018.9
20260905221610 21 0 0.0 0.0 0.00 0.00 0.00 90 1018.9
20260905221031 22 0 0.0 0.0 0.00 0.00 0.00 89 1018.9
20260905220534 22 0 0.0 0.0 0.00 0.00 0.00 90 1018.9
20260905220100 22 0 0.0 0.0 0.00 0.00 0.00 90 1018.9
20260905215533 22 0 0.0 0.0 0.00 0.00 0.00 89 1018.6
20260905215032 22 0 0.0 0.0 0.00 0.00 0.00 90 1018.6
20260905214600 22 0 0.0 0.0 0.00 0.00 0.00 90 1018.6
20260905214032 22 0 0.0 0.0 0.00 0.00 0.00 90 1018.7
20260905213533 22 0 0.0 0.0 0.00 0.00 0.00 91 1018.7
20260905213104 22 0 0.0 0.0 0.00 0.00 0.00 90 1018.6
20260905212532 22 0 0.0 0.0 0.00 0.00 0.00 90 1018.6
20260905212031 22 0 0.0 0.0 0.00 0.00 0.00 90 1018.7
20260905211549 22 0 0.0 0.0 0.00 0.00 0.00 90 1018.6
20260905211032 22 0 0.0 0.0 0.00 0.00 0.00 89 1018.6
20260905210529 22 0 0.0 0.0 0.00 0.00 0.00 89 1018.6
20260905210059 22 0 0.0 0.0 0.00 0.00 0.00 88 1018.7
20260905205532 22 0 0.0 0.0 0.00 0.00 0.00 88 1018.7
20260905205036 22 0 0.0 0.0 0.00 0.00 0.00 87 1018.6
20260905204555 22 0 0.0 0.0 0.00 0.00 0.00 87 1018.7
20260905204029 22 0 0.0 0.0 0.00 0.00 0.00 87 1018.6
20260905203532 22 0 0.0 0.0 0.00 0.00 0.00 88 1018.5
20260905203059 22 0 0.0 0.0 0.00 0.00 0.00 88 1018.6
20260905202533 23 0 0.0 0.0 0.00 0.00 0.00 87 1018.5
20260905202031 23 0 0.0 0.0 0.00 0.00 0.00 87 1018.6
20260905201620 23 0 0.0 0.0 0.00 0.00 0.00 87 1018.4
20260905201028 23 0 0.0 0.0 0.00 0.00 0.00 86 1018.4
20260905200530 23 0 0.0 0.0 0.00 0.00 0.00 86 1018.4
20260905195532 23 0 0.0 0.0 0.00 0.00 0.00 86 1018.4
20260905195034 23 0 0.0 0.0 0.00 0.00 0.00 86 1018.4
20260905194555 23 0 0.0 0.0 0.00 0.00 0.00 86 1018.4
20260905194031 23 0 0.0 0.0 0.00 0.00 0.00 85 1018.5
20260905193536 23 0 0.0 0.0 0.00 0.00 0.00 85 1018.4
20260905193113 23 0 0.0 0.0 0.00 0.00 0.00 85 1018.3
20260905192531 23 0 0.0 0.0 0.00 0.00 0.00 85 1018.3
20260905192031 23 0 0.0 0.0 0.00 0.00 0.00 85 1018.2
20260905191557 24 0 0.0 0.0 0.00 0.00 0.00 85 1018.3
20260905191031 24 0 0.0 0.0 0.00 0.00 0.00 85 1018.2
20260905190534 24 0 0.0 0.0 0.00 0.00 0.00 85 1018.1
20260905190058 24 0 0.0 0.0 0.00 0.00 0.00 85 1018.0
20260905185530 24 0 0.0 0.0 0.00 0.00 0.00 84 1018.0
20260905185030 25 0 0.0 0.0 0.00 0.00 0.00 84 1018.1
20260905184559 25 0 0.0 0.0 0.00 0.00 0.00 84 1018.1
20260905184032 25 0 0.0 0.0 0.00 0.00 0.00 83 1017.9
20260905183531 25 0 0.0 0.0 0.00 0.00 0.00 82 1018.0
20260905183058 25 0 0.0 0.0 0.00 0.00 0.00 81 1017.9
20260905182601 25 0 0.0 0.0 0.00 0.00 0.00 80 1017.8
20260905182031 25 0 0.0 0.0 0.00 0.00 0.00 80 1017.7
20260905181609 25 0 0.0 3.2 0.00 0.00 0.00 79 1017.8
20260905181036 26 0 0.0 6.4 0.00 0.00 0.00 78 1017.7
20260905180535 26 311 1.6 6.4 0.00 0.00 0.00 78 1017.7
20260905180056 26 324 3.2 6.4 0.00 0.00 0.00 78 1017.6
20260905175535 26 0 0.0 1.6 0.00 0.00 0.00 77 1017.6
20260905175036 26 0 0.0 1.6 0.00 0.00 0.00 76 1017.5
20260905174558 26 322 0.0 1.6 0.00 0.00 0.00 76 1017.4
20260905174032 26 0 0.0 1.6 0.00 0.00 0.00 75 1017.5
20260905173530 26 0 0.0 3.2 0.00 0.00 0.00 75 1017.5
20260905173100 27 310 1.6 4.8 0.00 0.00 0.00 74 1017.5
20260905172535 27 318 0.0 4.8 0.00 0.00 0.00 73 1017.4
20260905172031 27 317 0.0 8.0 0.00 0.00 0.00 72 1017.5
20260905171558 27 0 0.0 8.0 0.00 0.00 0.00 73 1017.6
20260905171034 27 327 3.2 9.7 0.00 0.00 0.00 72 1017.5
20260905170530 27 255 6.4 11.3 0.00 0.00 0.00 71 1017.6
20260905170057 27 297 4.8 11.3 0.00 0.00 0.00 71 1017.3
20260905165535 27 306 6.4 11.3 0.00 0.00 0.00 70 1017.5
20260905165034 28 304 4.8 11.3 0.00 0.00 0.00 71 1017.4
20260905164553 28 285 6.4 11.3 0.00 0.00 0.00 71 1017.4
20260905164035 28 295 6.4 11.3 0.00 0.00 0.00 69 1017.3
20260905163532 28 307 6.4 12.9 0.00 0.00 0.00 68 1017.4
20260905163049 28 317 6.4 12.9 0.00 0.00 0.00 68 1017.4
20260905162535 28 306 9.7 12.9 0.00 0.00 0.00 67 1017.5
20260905162034 28 288 8.0 16.1 0.00 0.00 0.00 67 1017.5
20260905161603 28 319 8.0 16.1 0.00 0.00 0.00 66 1017.4
20260905161034 28 301 6.4 12.9 0.00 0.00 0.00 65 1017.4
20260905160531 28 287 8.0 12.9 0.00 0.00 0.00 67 1017.4
20260905160056 28 283 8.0 14.5 0.00 0.00 0.00 65 1017.4
20260905155534 28 293 8.0 14.5 0.00 0.00 0.00 63 1017.4
20260905155031 28 349 9.7 14.5 0.00 0.00 0.00 66 1017.5
20260905154555 28 292 6.4 12.9 0.00 0.00 0.00 68 1017.4
20260905154031 28 263 8.0 14.5 0.00 0.00 0.00 67 1017.4
20260905153534 28 293 8.0 16.1 0.00 0.00 0.00 66 1017.3
20260905153100 29 311 8.0 16.1 0.00 0.00 0.00 66 1017.3
20260905152532 28 315 9.7 14.5 0.00 0.00 0.00 64 1017.3
20260905152035 29 315 4.8 12.9 0.00 0.00 0.00 67 1017.3
20260905151603 29 253 6.4 14.5 0.00 0.00 0.00 66 1017.2
20260905151033 29 284 9.7 14.5 0.00 0.00 0.00 65 1017.3
20260905150534 29 269 8.0 16.1 0.00 0.00 0.00 65 1017.4
20260905150055 29 314 8.0 16.1 0.00 0.00 0.00 65 1017.3
20260905145535 29 258 8.0 14.5 0.00 0.00 0.00 65 1017.4
20260905145031 29 287 6.4 14.5 0.00 0.00 0.00 66 1017.4
20260905144550 29 248 8.0 14.5 0.00 0.00 0.00 68 1017.3
20260905144035 29 290 9.7 17.7 0.00 0.00 0.00 67 1017.5
20260905143533 30 280 8.0 17.7 0.00 0.00 0.00 67 1017.4
20260905143101 30 309 9.7 16.1 0.00 0.00 0.00 67 1017.4
20260905142535 30 264 9.7 16.1 0.00 0.00 0.00 66 1017.5
20260905142035 30 263 8.0 16.1 0.00 0.00 0.00 67 1017.4
20260905141559 30 236 4.8 12.9 0.00 0.00 0.00 63 1017.3
20260905141032 30 223 6.4 14.5 0.00 0.00 0.00 65 1017.5
20260905140534 30 269 4.8 16.1 0.00 0.00 0.00 66 1017.4
20260905140059 30 223 8.0 16.1 0.00 0.00 0.00 67 1017.5
20260905135534 30 262 4.8 12.9 0.00 0.00 0.00 66 1017.6
20260905135031 30 316 8.0 14.5 0.00 0.00 0.00 67 1017.6
20260905134553 30 288 6.4 14.5 0.00 0.00 0.00 67 1017.7
20260905134032 30 266 8.0 14.5 0.00 0.00 0.00 67 1017.7
20260905133534 30 259 8.0 12.9 0.00 0.00 0.00 66 1017.8
20260905133058 30 307 6.4 12.9 0.00 0.00 0.00 65 1017.8
20260905132534 30 254 6.4 11.3 0.00 0.00 0.00 67 1017.9
20260905132034 30 316 6.4 14.5 0.00 0.00 0.00 63 1017.9
20260905131606 30 310 6.4 14.5 0.00 0.00 0.00 64 1018.0
20260905131034 30 265 8.0 14.5 0.00 0.00 0.00 65 1018.1
20260905130534 30 267 9.7 16.1 0.00 0.00 0.00 64 1018.0
20260905130057 30 326 6.4 16.1 0.00 0.00 0.00 64 1018.1
20260905125531 30 332 4.8 14.5 0.00 0.00 0.00 64 1018.2
20260905125032 30 287 8.0 14.5 0.00 0.00 0.00 64 1018.4
20260905124603 30 254 6.4 16.1 0.00 0.00 0.00 64 1018.2
20260905124033 30 202 6.4 16.1 0.00 0.00 0.00 61 1018.3
20260905123531 30 302 9.7 16.1 0.00 0.00 0.00 60 1018.3
20260905123052 30 275 3.2 11.3 0.00 0.00 0.00 61 1018.4
20260905122534 30 306 6.4 17.7 0.00 0.00 0.00 62 1018.3
20260905122034 30 295 8.0 17.7 0.00 0.00 0.00 64 1018.4
20260905121559 30 313 6.4 14.5 0.00 0.00 0.00 64 1018.4
20260905121032 30 296 6.4 12.9 0.00 0.00 0.00 64 1018.5
20260905120533 30 281 8.0 20.9 0.00 0.00 0.00 63 1018.5
20260905120056 30 255 8.0 20.9 0.00 0.00 0.00 63 1018.5
20260905115534 30 279 9.7 20.9 0.00 0.00 0.00 64 1018.7
20260905115033 30 294 4.8 16.1 0.00 0.00 0.00 63 1018.6
20260905114555 29 300 9.7 20.9 0.00 0.00 0.00 66 1018.6
20260905114034 29 274 11.3 20.9 0.00 0.00 0.00 62 1018.7
20260905113534 30 268 11.3 17.7 0.00 0.00 0.00 64 1018.6